Date,TemperatureHighF,TemperatureAvgF,TemperatureLowF,DewpointHighF,DewpointAvgF,DewpointLowF,HumidityHigh,HumidityAvg,HumidityLow,PressureMaxIn,PressureMinIn,WindSpeedMaxMPH,WindSpeedAvgMPH,GustSpeedMaxMPH,PrecipitationSumIn
2013-3-1,53.1,36.5,19.8,27.0,21.4,13.0,78,57,36,30.42,30.29,21,5,35,0.00
2013-3-2,59.3,44.0,27.4,31.0,25.6,19.0,83,53,25,30.33,29.88,20,6,31,0.00
2013-3-3,57.2,44.8,28.3,31.0,22.7,-99.9,93,48,25,29.88,29.42,37,-8,49,0.00
2013-3-4,31.7,24.7,13.2,15.0,10.1,5.0,76,56,34,30.47,29.80,29,11,38,0.00
2013-3-5,42.8,25.1,8.8,13.0,8.2,4.0,83,54,24,30.46,30.18,13,3,14,0.00
2013-3-6,52.8,35.2,15.1,30.0,15.8,7.0,76,49,25,30.18,29.77,21,4,33,0.00
2013-3-7,51.6,44.4,34.8,19.0,10.2,0.0,43,26,12,29.97,29.83,22,8,34,0.00
2013-3-8,47.8,36.6,27.1,31.0,22.9,13.0,81,59,41,29.98,29.84,16,3,20,0.00
2013-3-9,46.1,35.2,23.8,27.0,17.8,12.0,89,54,25,30.30,29.93,38,12,38,0.00
2013-3-10,52.4,36.2,16.0,19.0,15.1,9.0,79,47,24,30.33,30.05,23,5,40,0.00
2013-3-11,50.8,38.5,25.1,28.0,21.5,1.0,91,55,13,30.32,29.96,34,12,40,0.00
2013-3-12,53.0,32.3,14.1,26.0,12.4,-99.9,91,58,31,30.38,30.12,21,-51,37,0.00
2013-3-13,62.9,49.6,30.8,29.0,23.9,21.0,70,41,22,30.18,30.06,31,10,38,0.00
2013-3-14,69.0,58.1,41.8,31.0,26.0,19.0,54,31,16,30.10,29.84,20,7,31,0.00
2013-3-15,67.3,58.4,43.3,30.0,20.6,7.0,55,25,10,29.86,29.71,26,11,40,0.00
2013-3-16,53.9,43.0,29.8,31.0,25.3,15.0,83,53,25,29.91,29.61,21,5,21,0.00
2013-3-17,50.9,38.8,30.3,33.0,19.5,2.0,91,50,21,29.88,29.40,22,10,35,0.01
2013-3-18,41.0,30.0,14.7,22.0,10.4,2.0,81,49,20,30.07,29.89,26,8,31,0.01
2013-3-19,40.3,31.1,22.5,23.0,15.1,6.0,88,55,25,30.34,30.05,16,5,25,0.00
2013-3-20,54.1,38.2,21.2,28.0,16.6,8.0,61,43,30,30.31,29.58,22,6,30,0.00
2013-3-21,51.5,38.3,26.3,32.0,25.4,8.0,94,64,25,29.92,29.50,21,10,27,0.00
2013-3-22,35.7,26.3,16.9,22.0,15.4,5.0,89,67,28,30.26,29.91,26,9,33,0.00
2013-3-23,26.9,21.0,10.9,18.0,13.5,7.0,86,74,48,30.45,30.26,13,5,19,0.00
2013-3-24,35.4,23.2,12.9,12.0,7.2,3.0,80,53,28,30.46,30.37,22,8,28,0.00
2013-3-25,46.3,27.0,8.2,8.0,3.8,1.0,75,43,17,30.44,30.17,23,4,25,0.00
2013-3-26,52.3,37.3,24.1,15.0,9.5,2.0,47,33,21,30.16,29.97,15,3,16,0.00
2013-3-27,58.8,42.5,22.1,26.0,17.4,10.0,63,39,21,30.08,29.96,14,4,20,0.00
2013-3-28,64.3,48.7,29.0,25.0,20.8,17.0,67,37,17,30.07,29.93,20,4,23,0.00
2013-3-29,59.2,47.4,38.9,41.0,26.5,18.0,91,47,28,30.12,29.97,12,4,21,0.03
2013-3-30,58.8,47.8,39.5,41.0,31.6,21.0,91,59,24,30.15,30.04,18,5,24,0.01
2013-3-31,61.1,46.0,29.9,28.0,24.6,22.0,76,47,23,30.09,29.96,23,7,33,0.01